Weather History for KMRT - November, 2013

Change the Weather History Date:

Thursday, November 7, 2013

  Actual Average (KDLZ) Record (KDLZ)
Temperature  
Mean Temperature 38 °F -  
Max Temperature 45 °F 51 °F 78 °F (1938)
Min Temperature 32 °F 32 °F 16 °F (1971)
Degree Days  
Heating Degree Days 26    
Moisture  
Dew Point 31 °F    
Average Humidity 69    
Maximum Humidity 88    
Minimum Humidity 47    
Precipitation  
Precipitation 0.01 in - - ()
Sea Level Pressure  
Sea Level Pressure 30.14 in    
Wind  
Wind Speed 10 mph (NW)    
Max Wind Speed 17 mph    
Max Gust Speed 25 mph    
Visibility 10 miles    
Events      
Averages and records for this station are not official NWS values.
T = Trace of Precipitation, MM = Missing Value Source: NWS Daily Summary

Daily Weather History Graph

Daily Weather History Graph

Search for Another Location

Airport or City:

Trip Planner

Search our weather history database for the weather conditions in past years. The results will help you decide how hot, cold, wet, or windy it might be!

Date:

Astronomy

Nov. 07, 2013 Rise Set
Actual Time 7:10 AM EST 5:23 PM EST
Civil Twilight 6:41 AM EST 5:52 PM EST
Nautical Twilight 6:09 AM EST 6:24 PM EST
Astronomical Twilight 5:37 AM EST 6:56 PM EST
Moon 11:17 AM EST (11/7) 9:34 PM EST (11/7)
Length of Visible Light 11h 10m
Length of Day
10h 13m
Waxing Crescent, 22% of the Moon is Illuminated
Nov 7
Waxing Crescent
Nov 10
First Quarter
Nov 17
Full
Nov 25
Last Quarter
Dec 2
New

Hourly Weather History & Observations

Time (EST) Temp. Windchill Dew Point Humidity Pressure Visibility Wind Dir Wind Speed Gust Speed Precip Events Conditions
12:13 AM 44.2 °F 38.0 °F 40.5 °F 87% 30.02 in 10.0 mi NNW 12.7 mph 20.7 mph N/A   Overcast
12:33 AM 44.2 °F 39.2 °F 40.5 °F 87% 30.02 in 10.0 mi NNW 9.2 mph - N/A   Overcast
12:53 AM 43.9 °F 38.3 °F 40.5 °F 88% 30.01 in 7.0 mi North 10.4 mph - N/A   Overcast
1:13 AM 43.5 °F 37.5 °F 39.9 °F 87% 30.03 in 7.0 mi North 11.5 mph 21.9 mph N/A   Overcast
1:33 AM 43.2 °F 37.9 °F 39.4 °F 86% 30.01 in 5.0 mi North 9.2 mph - N/A   Overcast
1:53 AM 42.8 °F 37.5 °F 39.0 °F 86% 30.03 in 10.0 mi NNW 9.2 mph 17.3 mph N/A   Overcast
2:13 AM 42.8 °F 36.6 °F 39.2 °F 87% 30.04 in 10.0 mi NNW 11.5 mph 16.1 mph N/A   Overcast
2:33 AM 42.6 °F 37.8 °F 39.2 °F 88% 30.05 in 10.0 mi NNW 8.1 mph - N/A   Overcast
2:53 AM 42.4 °F 35.3 °F 38.5 °F 86% 30.04 in 10.0 mi North 13.8 mph - N/A   Overcast
3:13 AM 42.3 °F 36.3 °F 37.8 °F 84% 30.05 in 10.0 mi NNW 10.4 mph 18.4 mph N/A   Overcast
3:33 AM 42.1 °F 36.6 °F 37.8 °F 85% 30.05 in 10.0 mi NNW 9.2 mph - N/A   Overcast
3:53 AM 41.9 °F 35.9 °F 36.9 °F 82% 30.05 in 10.0 mi NNW 10.4 mph 17.3 mph N/A   Mostly Cloudy
4:13 AM 41.9 °F 36.9 °F 36.9 °F 82% 30.05 in 10.0 mi NNW 8.1 mph - N/A   Overcast
4:33 AM 41.5 °F 37.1 °F 36.9 °F 83% 30.07 in 10.0 mi NW 6.9 mph - N/A   Overcast
4:53 AM 41.9 °F 36.3 °F 37.4 °F 84% 30.07 in 10.0 mi NNW 9.2 mph - N/A   Overcast
5:13 AM 41.9 °F 36.9 °F 36.9 °F 82% 30.08 in 10.0 mi NNW 8.1 mph - N/A   Overcast
5:33 AM 41.2 °F 36.6 °F 35.6 °F 81% 30.09 in 10.0 mi NNW 6.9 mph 17.3 mph N/A   Overcast
5:53 AM 39.7 °F 33.2 °F 34.7 °F 82% 30.09 in 10.0 mi NNW 10.4 mph - N/A   Scattered Clouds
6:13 AM 39.2 °F 34.2 °F 34.5 °F 83% 30.10 in 10.0 mi NW 6.9 mph - N/A   Scattered Clouds
6:34 AM 39.7 °F 34.9 °F 34.9 °F 83% 30.11 in 10.0 mi NW 6.9 mph - N/A   Mostly Cloudy
6:53 AM 40.1 °F 35.3 °F 35.6 °F 84% 30.12 in 10.0 mi NW 6.9 mph - N/A   Overcast
7:13 AM 40.5 °F 36.5 °F 35.8 °F 83% 30.13 in 10.0 mi NW 5.8 mph - N/A   Overcast
7:33 AM 40.6 °F 36.0 °F 35.8 °F 83% 30.13 in 10.0 mi NNW 6.9 mph - N/A   Overcast
7:53 AM 41.0 °F 34.3 °F 34.7 °F 78% 30.14 in 10.0 mi NW 11.5 mph 17.3 mph 0.01 in   Overcast
8:13 AM 41.0 °F 34.7 °F 34.9 °F 79% 30.15 in 10.0 mi NNW 10.4 mph - N/A   Overcast
8:34 AM 40.5 °F 31.8 °F 32.9 °F 74% 30.16 in 10.0 mi NW 17.3 mph 25.3 mph N/A   Overcast
8:53 AM 40.3 °F 32.2 °F 32.7 °F 74% 30.17 in 10.0 mi NNW 15.0 mph 19.6 mph N/A   Overcast
9:13 AM 40.3 °F 34.4 °F 32.2 °F 73% 30.17 in 10.0 mi NNW 9.2 mph 19.6 mph N/A   Overcast
9:34 AM 40.6 °F 32.7 °F 32.0 °F 71% 30.18 in 10.0 mi NNW 15.0 mph 24.2 mph N/A   Mostly Cloudy
9:53 AM 40.6 °F 32.3 °F 29.8 °F 65% 30.19 in 10.0 mi NNW 16.1 mph 20.7 mph N/A   Scattered Clouds
10:13 AM 41.9 °F 34.0 °F 29.5 °F 61% 30.20 in 10.0 mi NNW 16.1 mph 21.9 mph N/A   Scattered Clouds
10:33 AM 41.7 °F 34.1 °F 27.1 °F 56% 30.20 in 10.0 mi North 15.0 mph - N/A   Scattered Clouds
10:53 AM 42.4 °F 35.3 °F 27.9 °F 56% 30.20 in 10.0 mi North 13.8 mph 18.4 mph N/A   Scattered Clouds
11:13 AM 42.8 °F 35.4 °F 26.4 °F 52% 30.20 in 10.0 mi NNW 15.0 mph 20.7 mph N/A   Clear
11:34 AM 43.5 °F 37.5 °F 27.3 °F 53% 30.20 in 10.0 mi NNW 11.5 mph 17.3 mph N/A   Clear
11:53 AM 43.7 °F 38.1 °F 26.6 °F 51% 30.20 in 10.0 mi NNW 10.4 mph 20.7 mph N/A   Scattered Clouds
12:13 PM 43.5 °F 38.3 °F 26.1 °F 50% 30.20 in 10.0 mi NW 9.2 mph 19.6 mph N/A   Scattered Clouds
12:33 PM 44.2 °F 38.8 °F 26.4 °F 50% 30.19 in 10.0 mi NNW 10.4 mph 20.7 mph N/A   Scattered Clouds
12:53 PM 43.7 °F 36.3 °F 25.5 °F 49% 30.18 in 10.0 mi NNW 16.1 mph 23.0 mph N/A   Mostly Cloudy
1:13 PM 45.5 °F 38.3 °F 26.4 °F 47% 30.17 in 10.0 mi NW 17.3 mph 21.9 mph N/A   Overcast
1:34 PM 44.2 °F 38.4 °F 25.7 °F 48% 30.17 in 10.0 mi NW 11.5 mph 23.0 mph N/A   Mostly Cloudy
1:53 PM 43.7 °F 36.6 °F 25.7 °F 49% 30.17 in 10.0 mi NW 15.0 mph 24.2 mph N/A   Overcast
2:13 PM 43.7 °F 38.1 °F 25.9 °F 50% 30.17 in 10.0 mi NW 10.4 mph - N/A   Overcast
2:34 PM 43.7 °F 38.6 °F 26.1 °F 50% 30.17 in 10.0 mi NNW 9.2 mph - N/A   Overcast
2:53 PM 43.7 °F 38.6 °F 26.2 °F 50% 30.17 in 10.0 mi NW 9.2 mph 17.3 mph N/A   Scattered Clouds
3:13 PM 45.5 °F 38.9 °F 27.0 °F 48% 30.16 in 10.0 mi WNW 15.0 mph 21.9 mph N/A   Scattered Clouds
3:34 PM 43.9 °F 37.2 °F 26.2 °F 50% 30.16 in 10.0 mi WNW 13.8 mph 18.4 mph N/A   Mostly Cloudy
3:53 PM 43.9 °F 37.9 °F 25.3 °F 48% 30.16 in 10.0 mi NW 11.5 mph 16.1 mph N/A   Mostly Cloudy
4:13 PM 43.3 °F 36.1 °F 24.6 °F 48% 30.17 in 10.0 mi WNW 15.0 mph 18.4 mph N/A   Mostly Cloudy
4:33 PM 42.8 °F 38.6 °F 26.1 °F 52% 30.17 in 10.0 mi WNW 6.9 mph - N/A   Scattered Clouds
4:53 PM 43.0 °F 37.7 °F 26.2 °F 52% 30.16 in 10.0 mi WNW 9.2 mph - N/A   Mostly Cloudy
5:13 PM 41.9 °F 36.3 °F 25.3 °F 52% 30.17 in 10.0 mi WNW 9.2 mph - N/A   Scattered Clouds
5:33 PM 39.4 °F 34.5 °F 26.4 °F 60% 30.17 in 10.0 mi West 6.9 mph - N/A   Clear
5:53 PM 38.7 °F 34.3 °F 26.1 °F 61% 30.17 in 10.0 mi West 5.8 mph - N/A   Clear
6:13 PM 37.0 °F 33.3 °F 26.4 °F 65% 30.17 in 10.0 mi West 4.6 mph - N/A   Clear
6:33 PM 35.1 °F 31.0 °F 26.8 °F 72% 30.18 in 10.0 mi West 4.6 mph - N/A   Clear
6:53 PM 35.2 °F 31.2 °F 26.2 °F 70% 30.18 in 10.0 mi West 4.6 mph - N/A   Clear
7:13 PM 32.9 °F 29.8 °F 25.9 °F 75% 30.18 in 10.0 mi West 3.5 mph - N/A   Clear
7:33 PM 32.7 °F 28.3 °F 26.6 °F 78% 30.17 in 10.0 mi WSW 4.6 mph - N/A   Mostly Cloudy
7:53 PM 34.5 °F 29.4 °F 27.5 °F 76% 30.17 in 10.0 mi West 5.8 mph - N/A   Overcast
8:13 PM 36.9 °F 34.3 °F 28.9 °F 73% 30.17 in 10.0 mi WSW 3.5 mph - N/A   Overcast
8:33 PM 37.8 °F 34.2 °F 27.9 °F 67% 30.17 in 10.0 mi WSW 4.6 mph - N/A   Overcast
8:53 PM 37.9 °F 34.4 °F 28.9 °F 70% 30.17 in 10.0 mi SSW 4.6 mph - N/A   Overcast
9:13 PM 37.9 °F 34.4 °F 29.3 °F 71% 30.17 in 10.0 mi SSW 4.6 mph - N/A   Overcast
9:33 PM 37.9 °F 34.4 °F 29.5 °F 72% 30.17 in 10.0 mi SW 4.6 mph - N/A   Overcast
9:53 PM 37.6 °F 34.0 °F 29.3 °F 72% 30.16 in 10.0 mi SSW 4.6 mph - N/A   Overcast
10:13 PM 37.4 °F 33.8 °F 29.1 °F 72% 30.16 in 10.0 mi SW 4.6 mph - N/A   Overcast
10:33 PM 37.4 °F 33.8 °F 29.7 °F 74% 30.17 in 10.0 mi WSW 4.6 mph - N/A   Overcast
10:53 PM 38.7 °F 35.2 °F 29.8 °F 71% 30.16 in 10.0 mi West 4.6 mph - N/A   Overcast
11:13 PM 38.1 °F 34.6 °F 29.8 °F 72% 30.16 in 10.0 mi WSW 4.6 mph - N/A   Overcast
11:33 PM 38.3 °F 34.8 °F 29.3 °F 70% 30.16 in 10.0 mi WSW 4.6 mph - N/A   Overcast
11:53 PM 38.7 °F 34.3 °F 30.2 °F 72% 30.16 in 10.0 mi WSW 5.8 mph - N/A   Overcast